Zurück zum Katalog

COSMOS 2315

AktivMilitärPO
NORAD 23603·PAYLOAD·🇷🇺 Russia

Gestartet Jul 5, 1995 von Plesetsk Cosmodrome

Loading…

Nächste Überflüge (nächste 24 Stunden)

TLE

AktuellSource: Space-Track

Epoche: Sep 14, 2026, 14:22 UTC

1 23603U 95032A   26257.59891424  .00000058  00000-0  46076-4 0  9997
2 23603  82.9077 185.2900 0030286 331.5027 202.0351 13.73097698562968

Verfolge COSMOS 2315 in Echtzeit mit AllMySat

Download on the App Store